• Em Portugal
  • Lista de países
  • Para 7 dias
  • Temperatura da água
  • Mapas de satélite
  • Mapa do tempo
  • Widgets de tempo
  • user-avatar
    Iniciar Sessão

    Previsão horária em Cuilapa

    Hoje, 17 Outubro, Terça-feira

    Tempo Temperatura Precipitação Vento Pressão Humidade
    00:00 +21°C° 0 mm 2 m/s 686 mmHg 85%
    01:00 +21°C° 0 mm 2 m/s 685 mmHg 85%
    02:00 +21°C° 0 mm 2 m/s 685 mmHg 84%
    03:00 +21°C° 0 mm 2 m/s 685 mmHg 84%
    04:00 +21°C° 0 mm 2 m/s 685 mmHg 84%
    05:00 +21°C° 0 mm 2 m/s 685 mmHg 84%
    06:00 +21°C° 0 mm 3 m/s 685 mmHg 85%
    07:00 +24°C° 0 mm 3 m/s 686 mmHg 79%
    08:00 +25°C° 0 mm 2 m/s 686 mmHg 74%
    09:00 +27°C° 0 mm 2 m/s 687 mmHg 69%
    10:00 +28°C° 0 mm 3 m/s 687 mmHg 65%
    11:00 +30°C° 0 mm 3 m/s 687 mmHg 61%
    12:00 +31°C° 0 mm 3 m/s 687 mmHg 58%
    13:00 +30°C° 0,2 mm 3 m/s 686 mmHg 60%
    14:00 +30°C° 0,2 mm 2 m/s 685 mmHg 63%
    15:00 +29°C° 0,2 mm 2 m/s 685 mmHg 66%
    16:00 +28°C° 0,2 mm 2 m/s 685 mmHg 73%
    17:00 +26°C° 0,2 mm 1 m/s 685 mmHg 80%
    18:00 +24°C° 0,2 mm 1 m/s 685 mmHg 87%
    19:00 +23°C° 0 mm 1 m/s 685 mmHg 88%
    20:00 +23°C° 0 mm 2 m/s 685 mmHg 89%
    21:00 +21°C° 0 mm 2 m/s 686 mmHg 90%
    22:00 +21°C° 0 mm 2 m/s 686 mmHg 89%
    23:00 +21°C° 0 mm 2 m/s 686 mmHg 88%

    Amanhã, 18 Outubro, Quarta-feira

    Tempo Temperatura Precipitação Vento Pressão Humidade
    00:00 +21°C° 0 mm 2 m/s 685 mmHg 88%
    01:00 +21°C° 0 mm 2 m/s 685 mmHg 87%
    02:00 +21°C° 0 mm 2 m/s 685 mmHg 86%
    03:00 +21°C° 0 mm 2 m/s 684 mmHg 85%
    04:00 +21°C° 0 mm 2 m/s 685 mmHg 85%
    05:00 +21°C° 0 mm 2 m/s 685 mmHg 84%
    06:00 +21°C° 0 mm 2 m/s 685 mmHg 84%
    07:00 +24°C° 0 mm 2 m/s 686 mmHg 79%
    08:00 +25°C° 0 mm 2 m/s 686 mmHg 75%
    09:00 +27°C° 0 mm 3 m/s 687 mmHg 70%
    10:00 +28°C° 0 mm 3 m/s 687 mmHg 66%
    11:00 +29°C° 0 mm 3 m/s 687 mmHg 62%
    12:00 +30°C° 0 mm 3 m/s 687 mmHg 59%
    13:00 +30°C° 0,2 mm 3 m/s 686 mmHg 61%
    14:00 +29°C° 0,2 mm 2 m/s 685 mmHg 63%
    15:00 +29°C° 0,2 mm 2 m/s 685 mmHg 65%
    16:00 +27°C° 0,1 mm 2 m/s 685 mmHg 72%
    17:00 +26°C° 0,1 mm 1 m/s 685 mmHg 79%
    18:00 +24°C° 0,1 mm 1 m/s 685 mmHg 86%
    19:00 +24°C° 0 mm 1 m/s 685 mmHg 87%
    20:00 +23°C° 0 mm 2 m/s 686 mmHg 87%
    21:00 +23°C° 0 mm 2 m/s 686 mmHg 88%
    22:00 +23°C° 0 mm 2 m/s 686 mmHg 87%
    23:00 +23°C° 0 mm 2 m/s 686 mmHg 87%

    Depois de amanhã, 19 Outubro, Quinta-feira

    Tempo Temperatura Precipitação Vento Pressão Humidade
    00:00 +21°C° 0 mm 2 m/s 686 mmHg 86%
    01:00 +21°C° 0 mm 2 m/s 685 mmHg 86%
    02:00 +21°C° 0 mm 2 m/s 685 mmHg 85%
    03:00 +21°C° 0 mm 2 m/s 684 mmHg 85%
    04:00 +21°C° 0 mm 2 m/s 684 mmHg 85%
    05:00 +21°C° 0 mm 2 m/s 685 mmHg 84%
    06:00 +21°C° 0 mm 2 m/s 685 mmHg 84%
    07:00 +23°C° 0 mm 2 m/s 685 mmHg 79%
    08:00 +25°C° 0 mm 2 m/s 686 mmHg 74%
    09:00 +27°C° 0 mm 2 m/s 687 mmHg 68%
    10:00 +28°C° 0 mm 2 m/s 687 mmHg 64%
    11:00 +29°C° 0 mm 3 m/s 687 mmHg 59%
    12:00 +31°C° 0 mm 3 m/s 686 mmHg 55%
    13:00 +30°C° 0,2 mm 2 m/s 686 mmHg 59%
    14:00 +29°C° 0,2 mm 2 m/s 685 mmHg 62%
    15:00 +29°C° 0,2 mm 2 m/s 684 mmHg 66%
    16:00 +27°C° 0,2 mm 2 m/s 684 mmHg 72%
    17:00 +25°C° 0,2 mm 1 m/s 684 mmHg 79%
    18:00 +24°C° 0,2 mm 1 m/s 684 mmHg 86%
    19:00 +23°C° 0,2 mm 1 m/s 685 mmHg 86%
    20:00 +23°C° 0,2 mm 1 m/s 685 mmHg 86%
    21:00 +23°C° 0,2 mm 2 m/s 686 mmHg 86%
    22:00 +23°C° 0,2 mm 2 m/s 686 mmHg 85%
    23:00 +23°C° 0,2 mm 2 m/s 686 mmHg 85%

    20 Outubro, Sexta-feira

    Tempo Temperatura Precipitação Vento Pressão Humidade
    00:00 +23°C° 0,2 mm 2 m/s 686 mmHg 85%
    01:00 +23°C° 0 mm 2 m/s 685 mmHg 84%
    02:00 +23°C° 0 mm 2 m/s 685 mmHg 84%
    03:00 +21°C° 0 mm 2 m/s 684 mmHg 84%
    04:00 +21°C° 0 mm 2 m/s 684 mmHg 83%
    05:00 +21°C° 0 mm 2 m/s 685 mmHg 83%
    06:00 +21°C° 0 mm 2 m/s 685 mmHg 82%
    07:00 +24°C° 0 mm 2 m/s 685 mmHg 77%
    08:00 +26°C° 0 mm 2 m/s 686 mmHg 73%
    09:00 +27°C° 0 mm 2 m/s 687 mmHg 68%
    10:00 +28°C° 0,1 mm 2 m/s 686 mmHg 65%
    11:00 +29°C° 0,1 mm 2 m/s 686 mmHg 63%
    12:00 +30°C° 0,1 mm 2 m/s 686 mmHg 60%
    13:00 +29°C° 0,3 mm 2 m/s 685 mmHg 62%
    14:00 +29°C° 0,3 mm 2 m/s 685 mmHg 64%
    15:00 +29°C° 0,3 mm 2 m/s 684 mmHg 67%
    16:00 +27°C° 0,5 mm 2 m/s 684 mmHg 74%
    17:00 +25°C° 0,5 mm 1 m/s 684 mmHg 81%
    18:00 +24°C° 0,5 mm 1 m/s 684 mmHg 88%
    19:00 +23°C° 0,4 mm 1 m/s 684 mmHg 89%
    20:00 +23°C° 0,4 mm 1 m/s 685 mmHg 89%
    21:00 +22°C° 0,4 mm 1 m/s 686 mmHg 90%
    22:00 +22°C° 0 mm 1 m/s 685 mmHg 90%
    23:00 +21°C° 0 mm 2 m/s 685 mmHg 89%

    21 Outubro, Sábado

    Tempo Temperatura Precipitação Vento Pressão Humidade
    00:00 +21°C° 0 mm 2 m/s 685 mmHg 89%
    01:00 +21°C° 0 mm 2 m/s 685 mmHg 88%
    02:00 +21°C° 0 mm 2 m/s 684 mmHg 87%
    03:00 +20°C° 0 mm 2 m/s 684 mmHg 87%
    04:00 +21°C° 0 mm 2 m/s 684 mmHg 86%
    05:00 +21°C° 0 mm 2 m/s 684 mmHg 85%
    06:00 +21°C° 0 mm 2 m/s 685 mmHg 84%
    07:00 +23°C° 0 mm 2 m/s 685 mmHg 80%
    08:00 +25°C° 0 mm 2 m/s 686 mmHg 75%
    09:00 +26°C° 0 mm 2 m/s 687 mmHg 71%
    10:00 +28°C° 0 mm 2 m/s 686 mmHg 65%
    11:00 +29°C° 0 mm 2 m/s 686 mmHg 58%
    12:00 +31°C° 0 mm 2 m/s 686 mmHg 52%
    13:00 +30°C° 0,5 mm 2 m/s 685 mmHg 59%
    14:00 +29°C° 0,5 mm 2 m/s 684 mmHg 65%
    15:00 +29°C° 0,5 mm 2 m/s 684 mmHg 72%
    16:00 +27°C° 0,8 mm 2 m/s 684 mmHg 78%
    17:00 +25°C° 0,8 mm 1 m/s 684 mmHg 85%
    18:00 +23°C° 0,8 mm 1 m/s 684 mmHg 91%
    19:00 +23°C° 0,4 mm 1 m/s 685 mmHg 92%
    20:00 +23°C° 0,4 mm 1 m/s 685 mmHg 92%
    21:00 +23°C° 0,4 mm 1 m/s 686 mmHg 92%
    22:00 +22°C° 0,2 mm 1 m/s 686 mmHg 92%
    23:00 +22°C° 0,2 mm 1 m/s 685 mmHg 91%

    22 Outubro, Domingo

    Tempo Temperatura Precipitação Vento Pressão Humidade
    00:00 +21°C° 0,2 mm 2 m/s 685 mmHg 91%
    01:00 +21°C° 0 mm 2 m/s 685 mmHg 90%
    02:00 +21°C° 0 mm 2 m/s 684 mmHg 90%
    03:00 +21°C° 0 mm 2 m/s 684 mmHg 89%
    04:00 +21°C° 0,1 mm 2 m/s 684 mmHg 89%
    05:00 +21°C° 0,1 mm 2 m/s 685 mmHg 88%
    06:00 +21°C° 0,1 mm 2 m/s 685 mmHg 88%
    07:00 +23°C° 0 mm 2 m/s 686 mmHg 83%
    08:00 +25°C° 0 mm 1 m/s 686 mmHg 78%
    09:00 +26°C° 0 mm 1 m/s 687 mmHg 74%
    10:00 +27°C° 0,3 mm 1 m/s 687 mmHg 71%
    11:00 +28°C° 0,3 mm 2 m/s 686 mmHg 69%
    12:00 +29°C° 0,3 mm 2 m/s 686 mmHg 67%
    13:00 +29°C° 1,2 mm 2 m/s 685 mmHg 71%
    14:00 +28°C° 1,2 mm 2 m/s 685 mmHg 75%
    15:00 +28°C° 1,2 mm 2 m/s 684 mmHg 79%
    16:00 +26°C° 1,4 mm 2 m/s 684 mmHg 84%
    17:00 +25°C° 1,4 mm 2 m/s 684 mmHg 88%
    18:00 +23°C° 1,4 mm 1 m/s 685 mmHg 93%
    19:00 +23°C° 0,5 mm 1 m/s 685 mmHg 93%
    20:00 +23°C° 0,5 mm 1 m/s 685 mmHg 94%
    21:00 +22°C° 0,5 mm 1 m/s 686 mmHg 94%
    22:00 +21°C° 0,1 mm 2 m/s 685 mmHg 93%
    23:00 +21°C° 0,1 mm 2 m/s 685 mmHg 93%
    Mostrar mais